This is the latest recevied weather packets stored in our database for station/object AE0NK. If no packets are shown the sender has not sent any weather packets the latest 10 day(s).
| Time | Temp. | Humidity | Pressure | Rain* | Wind** | Luminosity | Snow |
|---|---|---|---|---|---|---|---|
| 1777998203 | 12.78° C | 39% | 1011.5 hPa | 0 mm | - | 504 W/m² | - |
| 1777997900 | 12.22° C | 37% | 1011.4 hPa | 0 mm | - | 524 W/m² | - |
| 1777997598 | 11.67° C | 39% | 1011.4 hPa | 0 mm | - | 487 W/m² | - |
| 1777997297 | 11.67° C | 39% | 1011.3 hPa | 0 mm | - | 417 W/m² | - |
| 1777996994 | 11.67° C | 38% | 1011.4 hPa | 0 mm | - | 338 W/m² | - |
| 1777996709 | 11.67° C | 43% | 1011.3 hPa | 0 mm | - | 292 W/m² | - |
| 1777996406 | 11.67° C | 40% | 1011.3 hPa | 0 mm | - | 327 W/m² | - |
| 1777996103 | 11.67° C | 41% | 1011.3 hPa | 0 mm | - | 348 W/m² | - |
| 1777995801 | 11.67° C | 42% | 1011.3 hPa | 0 mm | - | 330 W/m² | - |
| 1777995496 | 11.67° C | 40% | 1011.3 hPa | 0 mm | - | 302 W/m² | - |
| 1777995194 | 11.67° C | 41% | 1011.3 hPa | 0 mm | - | 376 W/m² | - |
| 1777994912 | 11.11° C | 42% | 1011.3 hPa | 0 mm | - | 355 W/m² | - |
| 1777994608 | 11.11° C | 44% | 1011.2 hPa | 0 mm | - | 311 W/m² | - |
| 1777994305 | 11.11° C | 45% | 1011.2 hPa | 0 mm | - | 334 W/m² | - |
| 1777994004 | 11.11° C | 42% | 1011.2 hPa | 0 mm | - | 318 W/m² | - |
| 1777993701 | 11.11° C | 41% | 1010.9 hPa | 0 mm | - | 299 W/m² | - |
| 1777993401 | 11.11° C | 43% | 1010.9 hPa | 0 mm | - | 339 W/m² | - |
| 1777993095 | 11.11° C | 42% | 1010.9 hPa | 0 mm | - | 308 W/m² | - |
| 1777992792 | 11.11° C | 44% | 1011 hPa | 0 mm | - | 304 W/m² | - |
| 1777992510 | 10.56° C | 47% | 1010.9 hPa | 0 mm | - | 246 W/m² | - |
| 1777992209 | 10.56° C | 44% | 1010.9 hPa | 0 mm | - | 253 W/m² | - |
| 1777991907 | 10.56° C | 49% | 1011 hPa | 0 mm | - | 246 W/m² | - |
| 1777991604 | 10.56° C | 44% | 1010.8 hPa | 0 mm | - | 209 W/m² | - |
| 1777991303 | 10.56° C | 48% | 1010.7 hPa | 0 mm | - | 251 W/m² | - |
| 1777990999 | 10.56° C | 48% | 1010.6 hPa | 0 mm | - | 239 W/m² | - |
* Rain latest hour (hover to see other rain measurements)
** Current wind speed in m/s (hover to see current wind gust speed)